owner,sensor,date,latitude,longitude,vertical_datum,sea_water_practical_salinity,qcFlag 
ENP,ioos.station.NOAA.NDBC:LSNF1:1,2017-11-01T00:00:00Z,25.2350,-80.4570,1.5,7.93,1111122 
ENP,ioos.station.NOAA.NDBC:LSNF1:1,2017-11-01T01:00:00Z,25.2350,-80.4570,1.5,7.93,1111122 
ENP,ioos.station.NOAA.NDBC:LSNF1:1,2017-11-01T03:00:00Z,25.2350,-80.4570,1.5,7.93,1111122 
ENP,ioos.station.NOAA.NDBC:LSNF1:1,2017-11-01T04:00:00Z,25.2350,-80.4570,1.5,7.92,1111122 
ENP,ioos.station.NOAA.NDBC:LSNF1:1,2017-11-01T07:00:00Z,25.2350,-80.4570,1.5,7.92,1111122 
ENP,ioos.station.NOAA.NDBC:LSNF1:1,2017-11-01T08:00:00Z,25.2350,-80.4570,1.5,7.94,1111122 
ENP,ioos.station.NOAA.NDBC:LSNF1:1,2017-11-01T09:00:00Z,25.2350,-80.4570,1.5,7.94,1111122 
ENP,ioos.station.NOAA.NDBC:LSNF1:1,2017-11-01T12:00:00Z,25.2350,-80.4570,1.5,7.96,1111122 
ENP,ioos.station.NOAA.NDBC:LSNF1:1,2017-11-01T13:00:00Z,25.2350,-80.4570,1.5,7.95,1111122 
ENP,ioos.station.NOAA.NDBC:LSNF1:1,2017-11-01T14:00:00Z,25.2350,-80.4570,1.5,7.96,1111122 
ENP,ioos.station.NOAA.NDBC:LSNF1:1,2017-11-01T15:00:00Z,25.2350,-80.4570,1.5,7.97,1111122 
ENP,ioos.station.NOAA.NDBC:LSNF1:1,2017-11-01T16:00:00Z,25.2350,-80.4570,1.5,7.97,1111122 
ENP,ioos.station.NOAA.NDBC:LSNF1:1,2017-11-01T17:00:00Z,25.2350,-80.4570,1.5,8.01,1111122 
ENP,ioos.station.NOAA.NDBC:LSNF1:1,2017-11-01T18:00:00Z,25.2350,-80.4570,1.5,8.09,1111122 
ENP,ioos.station.NOAA.NDBC:LSNF1:1,2017-11-01T19:00:00Z,25.2350,-80.4570,1.5,8.14,1111122 
ENP,ioos.station.NOAA.NDBC:LSNF1:1,2017-11-01T20:00:00Z,25.2350,-80.4570,1.5,8.18,1111122 
ENP,ioos.station.NOAA.NDBC:LSNF1:1,2017-11-01T21:00:00Z,25.2350,-80.4570,1.5,8.16,1111122 
ENP,ioos.station.NOAA.NDBC:LSNF1:1,2017-11-01T22:00:00Z,25.2350,-80.4570,1.5,8.14,1111122 
ENP,ioos.station.NOAA.NDBC:LSNF1:1,2017-11-01T23:00:00Z,25.2350,-80.4570,1.5,8.14,1111122 
ENP,ioos.station.NOAA.NDBC:LSNF1:1,2017-11-02T00:00:00Z,25.2350,-80.4570,1.5,8.14,1111122 
ENP,ioos.station.NOAA.NDBC:LSNF1:1,2017-11-02T01:00:00Z,25.2350,-80.4570,1.5,8.14,1111122 
ENP,ioos.station.NOAA.NDBC:LSNF1:1,2017-11-02T03:00:00Z,25.2350,-80.4570,1.5,7.51,1111122 
ENP,ioos.station.NOAA.NDBC:LSNF1:1,2017-11-02T04:00:00Z,25.2350,-80.4570,1.5,7.7,1111122 
ENP,ioos.station.NOAA.NDBC:LSNF1:1,2017-11-02T06:00:00Z,25.2350,-80.4570,1.5,8.05,1111122 
ENP,ioos.station.NOAA.NDBC:LSNF1:1,2017-11-02T07:00:00Z,25.2350,-80.4570,1.5,8.09,1111122 
ENP,ioos.station.NOAA.NDBC:LSNF1:1,2017-11-02T08:00:00Z,25.2350,-80.4570,1.5,8.11,1111122 
ENP,ioos.station.NOAA.NDBC:LSNF1:1,2017-11-02T09:00:00Z,25.2350,-80.4570,1.5,8.13,1111122 
ENP,ioos.station.NOAA.NDBC:LSNF1:1,2017-11-02T11:00:00Z,25.2350,-80.4570,1.5,8.15,1111122 
ENP,ioos.station.NOAA.NDBC:LSNF1:1,2017-11-02T12:00:00Z,25.2350,-80.4570,1.5,8.19,1111122 
ENP,ioos.station.NOAA.NDBC:LSNF1:1,2017-11-02T13:00:00Z,25.2350,-80.4570,1.5,8.18,1111122 
ENP,ioos.station.NOAA.NDBC:LSNF1:1,2017-11-02T14:00:00Z,25.2350,-80.4570,1.5,8.15,1111122 
ENP,ioos.station.NOAA.NDBC:LSNF1:1,2017-11-02T15:00:00Z,25.2350,-80.4570,1.5,8.15,1111122 
ENP,ioos.station.NOAA.NDBC:LSNF1:1,2017-11-02T16:00:00Z,25.2350,-80.4570,1.5,8.13,1111122 
ENP,ioos.station.NOAA.NDBC:LSNF1:1,2017-11-02T17:00:00Z,25.2350,-80.4570,1.5,8.14,1111122 
ENP,ioos.station.NOAA.NDBC:LSNF1:1,2017-11-02T18:00:00Z,25.2350,-80.4570,1.5,8.17,1111122 
ENP,ioos.station.NOAA.NDBC:LSNF1:1,2017-11-02T19:00:00Z,25.2350,-80.4570,1.5,8.21,1111122 
ENP,ioos.station.NOAA.NDBC:LSNF1:1,2017-11-02T20:00:00Z,25.2350,-80.4570,1.5,8.2,1111122 
ENP,ioos.station.NOAA.NDBC:LSNF1:1,2017-11-02T21:00:00Z,25.2350,-80.4570,1.5,8.19,1111122 
ENP,ioos.station.NOAA.NDBC:LSNF1:1,2017-11-02T22:00:00Z,25.2350,-80.4570,1.5,8.22,1111122 
ENP,ioos.station.NOAA.NDBC:LSNF1:1,2017-11-02T23:00:00Z,25.2350,-80.4570,1.5,8.19,1111122 
ENP,ioos.station.NOAA.NDBC:LSNF1:1,2017-11-03T00:00:00Z,25.2350,-80.4570,1.5,8.17,1111122 
ENP,ioos.station.NOAA.NDBC:LSNF1:1,2017-11-03T01:00:00Z,25.2350,-80.4570,1.5,8.17,1111122 
ENP,ioos.station.NOAA.NDBC:LSNF1:1,2017-11-03T03:00:00Z,25.2350,-80.4570,1.5,8.15,1111122 
ENP,ioos.station.NOAA.NDBC:LSNF1:1,2017-11-03T04:00:00Z,25.2350,-80.4570,1.5,8.15,1111122 
ENP,ioos.station.NOAA.NDBC:LSNF1:1,2017-11-03T06:00:00Z,25.2350,-80.4570,1.5,7.87,1111122 
ENP,ioos.station.NOAA.NDBC:LSNF1:1,2017-11-03T07:00:00Z,25.2350,-80.4570,1.5,7.62,1111122 
ENP,ioos.station.NOAA.NDBC:LSNF1:1,2017-11-03T08:00:00Z,25.2350,-80.4570,1.5,7.55,1111122 
ENP,ioos.station.NOAA.NDBC:LSNF1:1,2017-11-03T09:00:00Z,25.2350,-80.4570,1.5,7.52,1111122 
ENP,ioos.station.NOAA.NDBC:LSNF1:1,2017-11-03T11:00:00Z,25.2350,-80.4570,1.5,7.8,1111122 
ENP,ioos.station.NOAA.NDBC:LSNF1:1,2017-11-03T12:00:00Z,25.2350,-80.4570,1.5,8.18,1111122 
ENP,ioos.station.NOAA.NDBC:LSNF1:1,2017-11-03T13:00:00Z,25.2350,-80.4570,1.5,8.27,1111122 
ENP,ioos.station.NOAA.NDBC:LSNF1:1,2017-11-03T14:00:00Z,25.2350,-80.4570,1.5,8.51,1111122 
ENP,ioos.station.NOAA.NDBC:LSNF1:1,2017-11-03T15:00:00Z,25.2350,-80.4570,1.5,8.13,1111122 
ENP,ioos.station.NOAA.NDBC:LSNF1:1,2017-11-03T16:00:00Z,25.2350,-80.4570,1.5,8.36,1111122 
ENP,ioos.station.NOAA.NDBC:LSNF1:1,2017-11-03T17:00:00Z,25.2350,-80.4570,1.5,8.83,1111122 
ENP,ioos.station.NOAA.NDBC:LSNF1:1,2017-11-03T18:00:00Z,25.2350,-80.4570,1.5,8.58,1111122 
ENP,ioos.station.NOAA.NDBC:LSNF1:1,2017-11-03T19:00:00Z,25.2350,-80.4570,1.5,8.58,1111122 
ENP,ioos.station.NOAA.NDBC:LSNF1:1,2017-11-03T20:00:00Z,25.2350,-80.4570,1.5,8.4,1111122 
ENP,ioos.station.NOAA.NDBC:LSNF1:1,2017-11-03T21:00:00Z,25.2350,-80.4570,1.5,8.21,1111122 
ENP,ioos.station.NOAA.NDBC:LSNF1:1,2017-11-03T22:00:00Z,25.2350,-80.4570,1.5,8.05,1111122 
ENP,ioos.station.NOAA.NDBC:LSNF1:1,2017-11-03T23:00:00Z,25.2350,-80.4570,1.5,8.02,1111122 
ENP,ioos.station.NOAA.NDBC:LSNF1:1,2017-11-04T00:00:00Z,25.2350,-80.4570,1.5,8.09,1111122 
ENP,ioos.station.NOAA.NDBC:LSNF1:1,2017-11-04T01:00:00Z,25.2350,-80.4570,1.5,7.99,1111122 
ENP,ioos.station.NOAA.NDBC:LSNF1:1,2017-11-04T04:00:00Z,25.2350,-80.4570,1.5,8.96,1111122 
ENP,ioos.station.NOAA.NDBC:LSNF1:1,2017-11-04T07:00:00Z,25.2350,-80.4570,1.5,8.77,1111122 
ENP,ioos.station.NOAA.NDBC:LSNF1:1,2017-11-04T08:00:00Z,25.2350,-80.4570,1.5,8.7,1111122 
ENP,ioos.station.NOAA.NDBC:LSNF1:1,2017-11-04T09:00:00Z,25.2350,-80.4570,1.5,8.77,1111122 
ENP,ioos.station.NOAA.NDBC:LSNF1:1,2017-11-04T11:00:00Z,25.2350,-80.4570,1.5,9.21,1111122 
ENP,ioos.station.NOAA.NDBC:LSNF1:1,2017-11-04T12:00:00Z,25.2350,-80.4570,1.5,8.89,1111122 
ENP,ioos.station.NOAA.NDBC:LSNF1:1,2017-11-04T13:00:00Z,25.2350,-80.4570,1.5,8.58,1111122 
ENP,ioos.station.NOAA.NDBC:LSNF1:1,2017-11-04T14:00:00Z,25.2350,-80.4570,1.5,8.64,1111122 
ENP,ioos.station.NOAA.NDBC:LSNF1:1,2017-11-04T15:00:00Z,25.2350,-80.4570,1.5,8.77,1111122 
ENP,ioos.station.NOAA.NDBC:LSNF1:1,2017-11-04T16:00:00Z,25.2350,-80.4570,1.5,8.83,1111122 
ENP,ioos.station.NOAA.NDBC:LSNF1:1,2017-11-04T17:00:00Z,25.2350,-80.4570,1.5,8.64,1111122 
ENP,ioos.station.NOAA.NDBC:LSNF1:1,2017-11-04T18:00:00Z,25.2350,-80.4570,1.5,8.89,1111122 
ENP,ioos.station.NOAA.NDBC:LSNF1:1,2017-11-04T19:00:00Z,25.2350,-80.4570,1.5,9.02,1111122 
ENP,ioos.station.NOAA.NDBC:LSNF1:1,2017-11-04T20:00:00Z,25.2350,-80.4570,1.5,9.34,1111122 
ENP,ioos.station.NOAA.NDBC:LSNF1:1,2017-11-04T21:00:00Z,25.2350,-80.4570,1.5,9.21,1111122 
ENP,ioos.station.NOAA.NDBC:LSNF1:1,2017-11-04T22:00:00Z,25.2350,-80.4570,1.5,9.15,1111122 
ENP,ioos.station.NOAA.NDBC:LSNF1:1,2017-11-04T23:00:00Z,25.2350,-80.4570,1.5,9.08,1111122 
ENP,ioos.station.NOAA.NDBC:LSNF1:1,2017-11-05T00:00:00Z,25.2350,-80.4570,1.5,9.02,1111122 
ENP,ioos.station.NOAA.NDBC:LSNF1:1,2017-11-05T01:00:00Z,25.2350,-80.4570,1.5,8.89,1111122 
ENP,ioos.station.NOAA.NDBC:LSNF1:1,2017-11-05T04:00:00Z,25.2350,-80.4570,1.5,9.21,1111122 
ENP,ioos.station.NOAA.NDBC:LSNF1:1,2017-11-05T05:00:00Z,25.2350,-80.4570,1.5,9.34,1111122 
ENP,ioos.station.NOAA.NDBC:LSNF1:1,2017-11-05T08:00:00Z,25.2350,-80.4570,1.5,9.59,1111122 
ENP,ioos.station.NOAA.NDBC:LSNF1:1,2017-11-05T09:00:00Z,25.2350,-80.4570,1.5,9.65,1111122 
ENP,ioos.station.NOAA.NDBC:LSNF1:1,2017-11-05T10:00:00Z,25.2350,-80.4570,1.5,9.65,1111122 
ENP,ioos.station.NOAA.NDBC:LSNF1:1,2017-11-05T13:00:00Z,25.2350,-80.4570,1.5,9.46,1111122 
ENP,ioos.station.NOAA.NDBC:LSNF1:1,2017-11-05T14:00:00Z,25.2350,-80.4570,1.5,9.4,1111122 
ENP,ioos.station.NOAA.NDBC:LSNF1:1,2017-11-05T15:00:00Z,25.2350,-80.4570,1.5,9.59,1111122 
ENP,ioos.station.NOAA.NDBC:LSNF1:1,2017-11-05T16:00:00Z,25.2350,-80.4570,1.5,9.59,1111122 
ENP,ioos.station.NOAA.NDBC:LSNF1:1,2017-11-05T17:00:00Z,25.2350,-80.4570,1.5,9.59,1111122 
ENP,ioos.station.NOAA.NDBC:LSNF1:1,2017-11-05T18:00:00Z,25.2350,-80.4570,1.5,9.65,1111122 
ENP,ioos.station.NOAA.NDBC:LSNF1:1,2017-11-05T19:00:00Z,25.2350,-80.4570,1.5,9.65,1111122 
ENP,ioos.station.NOAA.NDBC:LSNF1:1,2017-11-05T20:00:00Z,25.2350,-80.4570,1.5,9.59,1111122 
ENP,ioos.station.NOAA.NDBC:LSNF1:1,2017-11-05T21:00:00Z,25.2350,-80.4570,1.5,9.53,1111122 
ENP,ioos.station.NOAA.NDBC:LSNF1:1,2017-11-05T22:00:00Z,25.2350,-80.4570,1.5,9.53,1111122 
ENP,ioos.station.NOAA.NDBC:LSNF1:1,2017-11-05T23:00:00Z,25.2350,-80.4570,1.5,9.53,1111122 
ENP,ioos.station.NOAA.NDBC:LSNF1:1,2017-11-06T00:00:00Z,25.2350,-80.4570,1.5,9.46,1111122 
ENP,ioos.station.NOAA.NDBC:LSNF1:1,2017-11-06T01:00:00Z,25.2350,-80.4570,1.5,9.46,1111122 
ENP,ioos.station.NOAA.NDBC:LSNF1:1,2017-11-06T02:00:00Z,25.2350,-80.4570,1.5,9.46,1111122 
ENP,ioos.station.NOAA.NDBC:LSNF1:1,2017-11-06T04:00:00Z,25.2350,-80.4570,1.5,9.84,1111122 
ENP,ioos.station.NOAA.NDBC:LSNF1:1,2017-11-06T05:00:00Z,25.2350,-80.4570,1.5,10.23,1111122 
ENP,ioos.station.NOAA.NDBC:LSNF1:1,2017-11-06T07:00:00Z,25.2350,-80.4570,1.5,10.81,1111122 
ENP,ioos.station.NOAA.NDBC:LSNF1:1,2017-11-06T08:00:00Z,25.2350,-80.4570,1.5,10.87,1111122 
ENP,ioos.station.NOAA.NDBC:LSNF1:1,2017-11-06T09:00:00Z,25.2350,-80.4570,1.5,10.48,1111122 
ENP,ioos.station.NOAA.NDBC:LSNF1:1,2017-11-06T10:00:00Z,25.2350,-80.4570,1.5,10.36,1111122 
ENP,ioos.station.NOAA.NDBC:LSNF1:1,2017-11-06T12:00:00Z,25.2350,-80.4570,1.5,10.23,1111122 
ENP,ioos.station.NOAA.NDBC:LSNF1:1,2017-11-06T13:00:00Z,25.2350,-80.4570,1.5,10.68,1111122 
ENP,ioos.station.NOAA.NDBC:LSNF1:1,2017-11-06T14:00:00Z,25.2350,-80.4570,1.5,11.32,1111122 
ENP,ioos.station.NOAA.NDBC:LSNF1:1,2017-11-06T15:00:00Z,25.2350,-80.4570,1.5,11.0,1111122 
ENP,ioos.station.NOAA.NDBC:LSNF1:1,2017-11-06T16:00:00Z,25.2350,-80.4570,1.5,10.74,1111122 
ENP,ioos.station.NOAA.NDBC:LSNF1:1,2017-11-06T17:00:00Z,25.2350,-80.4570,1.5,10.81,1111122 
ENP,ioos.station.NOAA.NDBC:LSNF1:1,2017-11-06T18:00:00Z,25.2350,-80.4570,1.5,10.81,1111122 
ENP,ioos.station.NOAA.NDBC:LSNF1:1,2017-11-06T19:00:00Z,25.2350,-80.4570,1.5,10.61,1111122 
ENP,ioos.station.NOAA.NDBC:LSNF1:1,2017-11-06T20:00:00Z,25.2350,-80.4570,1.5,10.48,1111122 
ENP,ioos.station.NOAA.NDBC:LSNF1:1,2017-11-06T21:00:00Z,25.2350,-80.4570,1.5,10.36,1111122 
ENP,ioos.station.NOAA.NDBC:LSNF1:1,2017-11-06T22:00:00Z,25.2350,-80.4570,1.5,10.29,1111122 
ENP,ioos.station.NOAA.NDBC:LSNF1:1,2017-11-06T23:00:00Z,25.2350,-80.4570,1.5,10.23,1111122 
ENP,ioos.station.NOAA.NDBC:LSNF1:1,2017-11-07T00:00:00Z,25.2350,-80.4570,1.5,10.16,1111122 
ENP,ioos.station.NOAA.NDBC:LSNF1:1,2017-11-07T01:00:00Z,25.2350,-80.4570,1.5,10.16,1111122 
ENP,ioos.station.NOAA.NDBC:LSNF1:1,2017-11-07T02:00:00Z,25.2350,-80.4570,1.5,10.04,1111122 
ENP,ioos.station.NOAA.NDBC:LSNF1:1,2017-11-07T04:00:00Z,25.2350,-80.4570,1.5,9.91,1111122 
ENP,ioos.station.NOAA.NDBC:LSNF1:1,2017-11-07T05:00:00Z,25.2350,-80.4570,1.5,9.72,1111122 
ENP,ioos.station.NOAA.NDBC:LSNF1:1,2017-11-07T07:00:00Z,25.2350,-80.4570,1.5,9.78,1111122 
ENP,ioos.station.NOAA.NDBC:LSNF1:1,2017-11-07T08:00:00Z,25.2350,-80.4570,1.5,9.84,1111122 
ENP,ioos.station.NOAA.NDBC:LSNF1:1,2017-11-07T09:00:00Z,25.2350,-80.4570,1.5,9.78,1111122 
ENP,ioos.station.NOAA.NDBC:LSNF1:1,2017-11-07T10:00:00Z,25.2350,-80.4570,1.5,11.39,1111122 
ENP,ioos.station.NOAA.NDBC:LSNF1:1,2017-11-07T12:00:00Z,25.2350,-80.4570,1.5,10.48,1111122 
ENP,ioos.station.NOAA.NDBC:LSNF1:1,2017-11-07T13:00:00Z,25.2350,-80.4570,1.5,10.42,1111122 
ENP,ioos.station.NOAA.NDBC:LSNF1:1,2017-11-07T14:00:00Z,25.2350,-80.4570,1.5,10.61,1111122 
ENP,ioos.station.NOAA.NDBC:LSNF1:1,2017-11-07T15:00:00Z,25.2350,-80.4570,1.5,10.16,1111122 
ENP,ioos.station.NOAA.NDBC:LSNF1:1,2017-11-07T16:00:00Z,25.2350,-80.4570,1.5,10.1,1111122 
ENP,ioos.station.NOAA.NDBC:LSNF1:1,2017-11-07T17:00:00Z,25.2350,-80.4570,1.5,10.23,1111122 
ENP,ioos.station.NOAA.NDBC:LSNF1:1,2017-11-07T18:00:00Z,25.2350,-80.4570,1.5,10.16,1111122 
ENP,ioos.station.NOAA.NDBC:LSNF1:1,2017-11-07T19:00:00Z,25.2350,-80.4570,1.5,10.16,1111122 
ENP,ioos.station.NOAA.NDBC:LSNF1:1,2017-11-07T20:00:00Z,25.2350,-80.4570,1.5,10.04,1111122 
ENP,ioos.station.NOAA.NDBC:LSNF1:1,2017-11-07T21:00:00Z,25.2350,-80.4570,1.5,10.04,1111122 
ENP,ioos.station.NOAA.NDBC:LSNF1:1,2017-11-07T22:00:00Z,25.2350,-80.4570,1.5,9.97,1111122 
ENP,ioos.station.NOAA.NDBC:LSNF1:1,2017-11-07T23:00:00Z,25.2350,-80.4570,1.5,10.04,1111122 
ENP,ioos.station.NOAA.NDBC:LSNF1:1,2017-11-08T00:00:00Z,25.2350,-80.4570,1.5,10.04,1111122 
ENP,ioos.station.NOAA.NDBC:LSNF1:1,2017-11-08T01:00:00Z,25.2350,-80.4570,1.5,9.97,1111122 
ENP,ioos.station.NOAA.NDBC:LSNF1:1,2017-11-08T02:00:00Z,25.2350,-80.4570,1.5,9.78,1111122 
ENP,ioos.station.NOAA.NDBC:LSNF1:1,2017-11-08T05:00:00Z,25.2350,-80.4570,1.5,9.65,1111122 
ENP,ioos.station.NOAA.NDBC:LSNF1:1,2017-11-08T06:00:00Z,25.2350,-80.4570,1.5,9.53,1111122 
ENP,ioos.station.NOAA.NDBC:LSNF1:1,2017-11-08T08:00:00Z,25.2350,-80.4570,1.5,9.4,1111122 
ENP,ioos.station.NOAA.NDBC:LSNF1:1,2017-11-08T09:00:00Z,25.2350,-80.4570,1.5,9.4,1111122 
ENP,ioos.station.NOAA.NDBC:LSNF1:1,2017-11-08T10:00:00Z,25.2350,-80.4570,1.5,10.48,1111122 
ENP,ioos.station.NOAA.NDBC:LSNF1:1,2017-11-08T12:00:00Z,25.2350,-80.4570,1.5,10.68,1111122 
ENP,ioos.station.NOAA.NDBC:LSNF1:1,2017-11-08T13:00:00Z,25.2350,-80.4570,1.5,10.04,1111122 
ENP,ioos.station.NOAA.NDBC:LSNF1:1,2017-11-08T14:00:00Z,25.2350,-80.4570,1.5,10.1,1111122 
ENP,ioos.station.NOAA.NDBC:LSNF1:1,2017-11-08T15:00:00Z,25.2350,-80.4570,1.5,10.16,1111122 
ENP,ioos.station.NOAA.NDBC:LSNF1:1,2017-11-08T16:00:00Z,25.2350,-80.4570,1.5,10.55,1111122 
ENP,ioos.station.NOAA.NDBC:LSNF1:1,2017-11-08T17:00:00Z,25.2350,-80.4570,1.5,10.74,1111122 
ENP,ioos.station.NOAA.NDBC:LSNF1:1,2017-11-08T18:00:00Z,25.2350,-80.4570,1.5,10.81,1111122 
ENP,ioos.station.NOAA.NDBC:LSNF1:1,2017-11-08T19:00:00Z,25.2350,-80.4570,1.5,10.87,1111122 
ENP,ioos.station.NOAA.NDBC:LSNF1:1,2017-11-08T20:00:00Z,25.2350,-80.4570,1.5,10.61,1111122 
ENP,ioos.station.NOAA.NDBC:LSNF1:1,2017-11-08T21:00:00Z,25.2350,-80.4570,1.5,10.55,1111122 
ENP,ioos.station.NOAA.NDBC:LSNF1:1,2017-11-08T22:00:00Z,25.2350,-80.4570,1.5,10.29,1111122 
ENP,ioos.station.NOAA.NDBC:LSNF1:1,2017-11-08T23:00:00Z,25.2350,-80.4570,1.5,10.1,1111122 
ENP,ioos.station.NOAA.NDBC:LSNF1:1,2017-11-09T00:00:00Z,25.2350,-80.4570,1.5,10.04,1111122 
ENP,ioos.station.NOAA.NDBC:LSNF1:1,2017-11-09T01:00:00Z,25.2350,-80.4570,1.5,9.97,1111122 
ENP,ioos.station.NOAA.NDBC:LSNF1:1,2017-11-09T02:00:00Z,25.2350,-80.4570,1.5,9.65,1111122 
ENP,ioos.station.NOAA.NDBC:LSNF1:1,2017-11-09T04:00:00Z,25.2350,-80.4570,1.5,9.34,1111122 
ENP,ioos.station.NOAA.NDBC:LSNF1:1,2017-11-09T05:00:00Z,25.2350,-80.4570,1.5,9.4,1111122 
ENP,ioos.station.NOAA.NDBC:LSNF1:1,2017-11-09T07:00:00Z,25.2350,-80.4570,1.5,10.16,1111122 
ENP,ioos.station.NOAA.NDBC:LSNF1:1,2017-11-09T08:00:00Z,25.2350,-80.4570,1.5,10.23,1111122 
ENP,ioos.station.NOAA.NDBC:LSNF1:1,2017-11-09T09:00:00Z,25.2350,-80.4570,1.5,10.16,1111122 
ENP,ioos.station.NOAA.NDBC:LSNF1:1,2017-11-09T10:00:00Z,25.2350,-80.4570,1.5,10.29,1111122 
ENP,ioos.station.NOAA.NDBC:LSNF1:1,2017-11-09T12:00:00Z,25.2350,-80.4570,1.5,10.42,1111122 
ENP,ioos.station.NOAA.NDBC:LSNF1:1,2017-11-09T13:00:00Z,25.2350,-80.4570,1.5,10.42,1111122 
ENP,ioos.station.NOAA.NDBC:LSNF1:1,2017-11-09T14:00:00Z,25.2350,-80.4570,1.5,10.42,1111122 
ENP,ioos.station.NOAA.NDBC:LSNF1:1,2017-11-09T15:00:00Z,25.2350,-80.4570,1.5,10.48,1111122 
ENP,ioos.station.NOAA.NDBC:LSNF1:1,2017-11-09T16:00:00Z,25.2350,-80.4570,1.5,10.36,1111122 
ENP,ioos.station.NOAA.NDBC:LSNF1:1,2017-11-09T17:00:00Z,25.2350,-80.4570,1.5,10.36,1111122 
ENP,ioos.station.NOAA.NDBC:LSNF1:1,2017-11-09T18:00:00Z,25.2350,-80.4570,1.5,10.29,1111122 
ENP,ioos.station.NOAA.NDBC:LSNF1:1,2017-11-09T19:00:00Z,25.2350,-80.4570,1.5,10.29,1111122 
ENP,ioos.station.NOAA.NDBC:LSNF1:1,2017-11-09T20:00:00Z,25.2350,-80.4570,1.5,10.1,1111122 
ENP,ioos.station.NOAA.NDBC:LSNF1:1,2017-11-09T21:00:00Z,25.2350,-80.4570,1.5,10.16,1111122 
ENP,ioos.station.NOAA.NDBC:LSNF1:1,2017-11-09T22:00:00Z,25.2350,-80.4570,1.5,10.16,1111122 
ENP,ioos.station.NOAA.NDBC:LSNF1:1,2017-11-09T23:00:00Z,25.2350,-80.4570,1.5,10.1,1111122 
ENP,ioos.station.NOAA.NDBC:LSNF1:1,2017-11-10T00:00:00Z,25.2350,-80.4570,1.5,10.1,1111122 
ENP,ioos.station.NOAA.NDBC:LSNF1:1,2017-11-10T01:00:00Z,25.2350,-80.4570,1.5,10.04,1111122 
ENP,ioos.station.NOAA.NDBC:LSNF1:1,2017-11-10T02:00:00Z,25.2350,-80.4570,1.5,10.04,1111122 
ENP,ioos.station.NOAA.NDBC:LSNF1:1,2017-11-10T04:00:00Z,25.2350,-80.4570,1.5,9.97,1111122 
ENP,ioos.station.NOAA.NDBC:LSNF1:1,2017-11-10T05:00:00Z,25.2350,-80.4570,1.5,9.97,1111122 
ENP,ioos.station.NOAA.NDBC:LSNF1:1,2017-11-10T07:00:00Z,25.2350,-80.4570,1.5,9.65,1111122 
ENP,ioos.station.NOAA.NDBC:LSNF1:1,2017-11-10T08:00:00Z,25.2350,-80.4570,1.5,9.65,1111122 
ENP,ioos.station.NOAA.NDBC:LSNF1:1,2017-11-10T09:00:00Z,25.2350,-80.4570,1.5,9.4,1111122 
ENP,ioos.station.NOAA.NDBC:LSNF1:1,2017-11-10T10:00:00Z,25.2350,-80.4570,1.5,9.4,1111122 
ENP,ioos.station.NOAA.NDBC:LSNF1:1,2017-11-10T12:00:00Z,25.2350,-80.4570,1.5,9.4,1111122 
ENP,ioos.station.NOAA.NDBC:LSNF1:1,2017-11-10T13:00:00Z,25.2350,-80.4570,1.5,9.46,1111122 
ENP,ioos.station.NOAA.NDBC:LSNF1:1,2017-11-10T14:00:00Z,25.2350,-80.4570,1.5,9.97,1111122 
ENP,ioos.station.NOAA.NDBC:LSNF1:1,2017-11-10T15:00:00Z,25.2350,-80.4570,1.5,10.55,1111122 
ENP,ioos.station.NOAA.NDBC:LSNF1:1,2017-11-10T16:00:00Z,25.2350,-80.4570,1.5,10.68,1111122 
ENP,ioos.station.NOAA.NDBC:LSNF1:1,2017-11-10T17:00:00Z,25.2350,-80.4570,1.5,10.55,1111122 
ENP,ioos.station.NOAA.NDBC:LSNF1:1,2017-11-10T18:00:00Z,25.2350,-80.4570,1.5,10.55,1111122 
ENP,ioos.station.NOAA.NDBC:LSNF1:1,2017-11-10T19:00:00Z,25.2350,-80.4570,1.5,10.81,1111122 
ENP,ioos.station.NOAA.NDBC:LSNF1:1,2017-11-10T20:00:00Z,25.2350,-80.4570,1.5,10.23,1111122 
ENP,ioos.station.NOAA.NDBC:LSNF1:1,2017-11-10T21:00:00Z,25.2350,-80.4570,1.5,10.04,1111122 
ENP,ioos.station.NOAA.NDBC:LSNF1:1,2017-11-10T22:00:00Z,25.2350,-80.4570,1.5,9.97,1111122 
ENP,ioos.station.NOAA.NDBC:LSNF1:1,2017-11-10T23:00:00Z,25.2350,-80.4570,1.5,9.27,1111122 
ENP,ioos.station.NOAA.NDBC:LSNF1:1,2017-11-11T00:00:00Z,25.2350,-80.4570,1.5,9.08,1111122 
ENP,ioos.station.NOAA.NDBC:LSNF1:1,2017-11-11T01:00:00Z,25.2350,-80.4570,1.5,9.02,1111122 
ENP,ioos.station.NOAA.NDBC:LSNF1:1,2017-11-11T02:00:00Z,25.2350,-80.4570,1.5,9.34,1111122 
ENP,ioos.station.NOAA.NDBC:LSNF1:1,2017-11-11T04:00:00Z,25.2350,-80.4570,1.5,9.21,1111122 
ENP,ioos.station.NOAA.NDBC:LSNF1:1,2017-11-11T05:00:00Z,25.2350,-80.4570,1.5,9.27,1111122 
ENP,ioos.station.NOAA.NDBC:LSNF1:1,2017-11-11T07:00:00Z,25.2350,-80.4570,1.5,9.78,1111122 
ENP,ioos.station.NOAA.NDBC:LSNF1:1,2017-11-11T08:00:00Z,25.2350,-80.4570,1.5,9.4,1111122 
ENP,ioos.station.NOAA.NDBC:LSNF1:1,2017-11-11T09:00:00Z,25.2350,-80.4570,1.5,9.34,1111122 
ENP,ioos.station.NOAA.NDBC:LSNF1:1,2017-11-11T10:00:00Z,25.2350,-80.4570,1.5,9.53,1111122 
ENP,ioos.station.NOAA.NDBC:LSNF1:1,2017-11-11T12:00:00Z,25.2350,-80.4570,1.5,9.08,1111122 
ENP,ioos.station.NOAA.NDBC:LSNF1:1,2017-11-11T13:00:00Z,25.2350,-80.4570,1.5,9.34,1111122 
ENP,ioos.station.NOAA.NDBC:LSNF1:1,2017-11-11T14:00:00Z,25.2350,-80.4570,1.5,9.34,1111122 
ENP,ioos.station.NOAA.NDBC:LSNF1:1,2017-11-11T15:00:00Z,25.2350,-80.4570,1.5,9.91,1111122 
ENP,ioos.station.NOAA.NDBC:LSNF1:1,2017-11-11T16:00:00Z,25.2350,-80.4570,1.5,11.39,1111122 
ENP,ioos.station.NOAA.NDBC:LSNF1:1,2017-11-11T17:00:00Z,25.2350,-80.4570,1.5,11.06,1111122 
ENP,ioos.station.NOAA.NDBC:LSNF1:1,2017-11-11T18:00:00Z,25.2350,-80.4570,1.5,10.87,1111122 
ENP,ioos.station.NOAA.NDBC:LSNF1:1,2017-11-11T19:00:00Z,25.2350,-80.4570,1.5,10.74,1111122 
ENP,ioos.station.NOAA.NDBC:LSNF1:1,2017-11-11T20:00:00Z,25.2350,-80.4570,1.5,10.55,1111122 
ENP,ioos.station.NOAA.NDBC:LSNF1:1,2017-11-11T21:00:00Z,25.2350,-80.4570,1.5,9.91,1111122 
ENP,ioos.station.NOAA.NDBC:LSNF1:1,2017-11-11T22:00:00Z,25.2350,-80.4570,1.5,9.59,1111122 
ENP,ioos.station.NOAA.NDBC:LSNF1:1,2017-11-11T23:00:00Z,25.2350,-80.4570,1.5,9.59,1111122 
ENP,ioos.station.NOAA.NDBC:LSNF1:1,2017-11-12T00:00:00Z,25.2350,-80.4570,1.5,9.84,1111122 
ENP,ioos.station.NOAA.NDBC:LSNF1:1,2017-11-12T01:00:00Z,25.2350,-80.4570,1.5,10.48,1111122 
ENP,ioos.station.NOAA.NDBC:LSNF1:1,2017-11-12T02:00:00Z,25.2350,-80.4570,1.5,12.23,1111122 
ENP,ioos.station.NOAA.NDBC:LSNF1:1,2017-11-12T05:00:00Z,25.2350,-80.4570,1.5,12.62,1111122 
ENP,ioos.station.NOAA.NDBC:LSNF1:1,2017-11-12T08:00:00Z,25.2350,-80.4570,1.5,13.08,1111122 
ENP,ioos.station.NOAA.NDBC:LSNF1:1,2017-11-12T09:00:00Z,25.2350,-80.4570,1.5,13.02,1111122 
ENP,ioos.station.NOAA.NDBC:LSNF1:1,2017-11-12T10:00:00Z,25.2350,-80.4570,1.5,13.08,1111122 
ENP,ioos.station.NOAA.NDBC:LSNF1:1,2017-11-12T13:00:00Z,25.2350,-80.4570,1.5,13.02,1111122 
ENP,ioos.station.NOAA.NDBC:LSNF1:1,2017-11-12T14:00:00Z,25.2350,-80.4570,1.5,13.08,1111122 
ENP,ioos.station.NOAA.NDBC:LSNF1:1,2017-11-12T15:00:00Z,25.2350,-80.4570,1.5,13.02,1111122 
ENP,ioos.station.NOAA.NDBC:LSNF1:1,2017-11-12T16:00:00Z,25.2350,-80.4570,1.5,12.88,1111122 
ENP,ioos.station.NOAA.NDBC:LSNF1:1,2017-11-12T17:00:00Z,25.2350,-80.4570,1.5,12.75,1111122 
ENP,ioos.station.NOAA.NDBC:LSNF1:1,2017-11-12T18:00:00Z,25.2350,-80.4570,1.5,12.43,1111122 
ENP,ioos.station.NOAA.NDBC:LSNF1:1,2017-11-12T19:00:00Z,25.2350,-80.4570,1.5,12.43,1111122 
ENP,ioos.station.NOAA.NDBC:LSNF1:1,2017-11-12T20:00:00Z,25.2350,-80.4570,1.5,12.36,1111122 
ENP,ioos.station.NOAA.NDBC:LSNF1:1,2017-11-12T21:00:00Z,25.2350,-80.4570,1.5,12.23,1111122 
ENP,ioos.station.NOAA.NDBC:LSNF1:1,2017-11-12T22:00:00Z,25.2350,-80.4570,1.5,12.56,1111122 
ENP,ioos.station.NOAA.NDBC:LSNF1:1,2017-11-12T23:00:00Z,25.2350,-80.4570,1.5,13.34,1111122 
ENP,ioos.station.NOAA.NDBC:LSNF1:1,2017-11-13T00:00:00Z,25.2350,-80.4570,1.5,13.61,1111122 
ENP,ioos.station.NOAA.NDBC:LSNF1:1,2017-11-13T01:00:00Z,25.2350,-80.4570,1.5,13.74,1111122 
ENP,ioos.station.NOAA.NDBC:LSNF1:1,2017-11-13T02:00:00Z,25.2350,-80.4570,1.5,13.94,1111122 
ENP,ioos.station.NOAA.NDBC:LSNF1:1,2017-11-13T04:00:00Z,25.2350,-80.4570,1.5,14.0,1111122 
ENP,ioos.station.NOAA.NDBC:LSNF1:1,2017-11-13T05:00:00Z,25.2350,-80.4570,1.5,14.0,1111122 
ENP,ioos.station.NOAA.NDBC:LSNF1:1,2017-11-13T07:00:00Z,25.2350,-80.4570,1.5,13.94,1111122 
ENP,ioos.station.NOAA.NDBC:LSNF1:1,2017-11-13T08:00:00Z,25.2350,-80.4570,1.5,13.87,1111122 
ENP,ioos.station.NOAA.NDBC:LSNF1:1,2017-11-13T09:00:00Z,25.2350,-80.4570,1.5,13.8,1111122 
ENP,ioos.station.NOAA.NDBC:LSNF1:1,2017-11-13T10:00:00Z,25.2350,-80.4570,1.5,13.8,1111122 
ENP,ioos.station.NOAA.NDBC:LSNF1:1,2017-11-13T12:00:00Z,25.2350,-80.4570,1.5,14.2,1111122 
ENP,ioos.station.NOAA.NDBC:LSNF1:1,2017-11-13T13:00:00Z,25.2350,-80.4570,1.5,14.27,1111122 
ENP,ioos.station.NOAA.NDBC:LSNF1:1,2017-11-13T14:00:00Z,25.2350,-80.4570,1.5,14.07,1111122 
ENP,ioos.station.NOAA.NDBC:LSNF1:1,2017-11-13T15:00:00Z,25.2350,-80.4570,1.5,14.0,1111122 
ENP,ioos.station.NOAA.NDBC:LSNF1:1,2017-11-13T16:00:00Z,25.2350,-80.4570,1.5,13.94,1111122 
ENP,ioos.station.NOAA.NDBC:LSNF1:1,2017-11-13T17:00:00Z,25.2350,-80.4570,1.5,13.8,1111122 
ENP,ioos.station.NOAA.NDBC:LSNF1:1,2017-11-13T18:00:00Z,25.2350,-80.4570,1.5,13.8,1111122 
ENP,ioos.station.NOAA.NDBC:LSNF1:1,2017-11-13T19:00:00Z,25.2350,-80.4570,1.5,13.94,1111122 
ENP,ioos.station.NOAA.NDBC:LSNF1:1,2017-11-13T20:00:00Z,25.2350,-80.4570,1.5,14.13,1111122 
ENP,ioos.station.NOAA.NDBC:LSNF1:1,2017-11-13T21:00:00Z,25.2350,-80.4570,1.5,14.27,1111122 
ENP,ioos.station.NOAA.NDBC:LSNF1:1,2017-11-13T22:00:00Z,25.2350,-80.4570,1.5,14.2,1111122 